Location: Champignolles
(47.0543°N, 4.5663°E)
Time: 06:47:22
(UTC+00:00)

Cosmos 923 Rocket - Pass Details

Date: 13 April 2021
Orbit: 759 x 785 km, 74.0° (Epoch: 13 May)

Event Time Altitude Azimuth Distance (km) Brightness Sun altitude
Rises 18:52:27 0° 248° (WSW) 3,227 8.1 -4.8°
Reaches altitude 10° 18:55:32 10° 266° (W) 2,300 7.8 -5.3°
Maximum altitude 18:59:09 19° 310° (NW) 1,777 7.1 -5.9°
Drops below altitude 10° 19:02:47 10° 355° (N) 2,302 6.9 -6.5°
Sets 19:05:53 0° 13° (NNE) 3,230 7.4 -7.0°
